This is the latest recevied weather packets stored in our database for station/object K7ZQU-7. If no packets are shown the sender has not sent any weather packets the latest 10 day(s).
| Time | Temp. | Humidity | Pressure | Rain* | Wind** | Luminosity | Snow |
|---|---|---|---|---|---|---|---|
| 1777910386 | 14.44° C | 63% | 1011.9 hPa | 0 mm | 1.34 m/s, 297° | - | - |
| 1777910087 | 14.44° C | 63% | 1011.8 hPa | 0 mm | 0.89 m/s, 301° | - | - |
| 1777909489 | 13.89° C | 63% | 1011.7 hPa | 0 mm | 2.24 m/s, 297° | - | - |
| 1777908888 | 13.89° C | 64% | 1011.7 hPa | 0 mm | 1.34 m/s, 323° | - | - |
| 1777908589 | 13.33° C | 66% | 1011.5 hPa | 0 mm | 1.79 m/s, 321° | - | - |
| 1777908289 | 12.78° C | 66% | 1011.5 hPa | 0 mm | 1.79 m/s, 301° | - | - |
| 1777907990 | 12.78° C | 69% | 1011.5 hPa | 0 mm | 1.79 m/s, 345° | - | - |
| 1777907688 | 12.78° C | 69% | 1011.5 hPa | 0 mm | 0.89 m/s, 274° | - | - |
| 1777907389 | 12.22° C | 69% | 1011.5 hPa | 0 mm | 1.34 m/s, 332° | - | - |
| 1777907090 | 12.22° C | 70% | 1011.4 hPa | 0 mm | 0.89 m/s, 329° | - | - |
| 1777906791 | 11.67° C | 70% | 1011.4 hPa | 0 mm | 1.79 m/s, 346° | - | - |
| 1777906190 | 11.11° C | 74% | 1011.4 hPa | 0 mm | 1.34 m/s, 309° | - | - |
| 1777905890 | 11.11° C | 76% | 1011.5 hPa | 0 mm | 0.45 m/s, 285° | - | - |
| 1777905292 | 9.44° C | 80% | 1011.5 hPa | 0 mm | 0.45 m/s, 316° | - | - |
| 1777904993 | 8.89° C | 82% | 1011.5 hPa | 0 mm | 0.45 m/s, 309° | - | - |
| 1777904691 | 8.33° C | 84% | 1011.5 hPa | 0 mm | 0.89 m/s, 274° | - | - |
| 1777904392 | 7.78° C | 86% | 1011.4 hPa | 0 mm | 0 m/s | - | - |
| 1777904093 | 7.22° C | 88% | 1011.4 hPa | 0 mm | 0 m/s | - | - |
| 1777903794 | 6.67° C | 89% | 1011.4 hPa | 0 mm | 0 m/s | - | - |
| 1777903495 | 6.67° C | 89% | 1011.4 hPa | 0 mm | 0 m/s | - | - |
| 1777903193 | 6.11° C | 89% | 1011.4 hPa | 0 mm | 0 m/s | - | - |
| 1777902894 | 6.11° C | 89% | 1011.4 hPa | 0 mm | 0 m/s | - | - |
| 1777902595 | 6.11° C | 90% | 1011.4 hPa | 0 mm | 0 m/s | - | - |
| 1777902296 | 5.56° C | 90% | 1011.3 hPa | 0 mm | 0 m/s | - | - |
| 1777901997 | 5.56° C | 90% | 1011.3 hPa | 0 mm | 0 m/s | - | - |
* Rain latest hour (hover to see other rain measurements)
** Current wind speed in m/s (hover to see current wind gust speed)